Theta_e
351 350 351 351 351 349 349 352 354 353 353 354 353 352 352 353 354 354 354 355 356 356 357 356 355 354 354 354 354 353 352 351 351 351 351 351 352 353 353 353 353 354 353 352 352 352 352 353 353 352 354 355 357 358 359 359 359 358 357 358 358 357 358
353 351 351 352 352 352 351 352 353 353 354 354 354 353 353 354 354 355 355 355 356 357 356 357 355 355 354 353 353 353 352 351 351 351 350 350 352 354 353 353 353 354 354 354 352 353 353 353 354 354 354 355 357 357 357 358 359 358 358 358 358 357 358
357 356 355 354 353 354 353 354 353 353 353 354 356 355 354 354 355 355 355 356 357 356 356 356 356 354 354 353 352 352 353 352 351 351 350 350 352 353 353 353 354 354 354 354 353 353 353 354 355 355 356 356 355 355 356 356 357 358 357 358 358 356 358
359 359 358 357 356 356 355 355 354 353 353 354 355 355 355 355 356 356 357 357 357 356 356 355 355 354 352 353 353 353 352 351 351 351 349 348 351 351 352 353 353 353 352 353 354 353 353 353 353 355 356 356 355 355 356 356 356 357 358 359 359 358 359
359 359 359 359 357 356 356 356 355 354 353 354 355 355 356 356 356 357 357 356 355 356 355 354 354 353 353 352 352 351 352 351 350 351 350 349 349 349 351 353 353 353 352 352 353 353 354 353 354 354 355 356 355 356 356 356 356 357 358 360 360 359 359
357 359 359 360 358 356 356 357 356 355 354 355 356 357 356 355 354 355 355 354 354 354 355 354 353 352 353 352 352 351 352 351 352 351 351 350 349 349 350 351 352 352 352 352 353 353 354 354 353 352 354 355 355 354 356 356 355 357 358 360 361 360 359
355 359 359 358 358 356 355 356 355 354 356 357 357 356 355 352 352 353 353 352 353 354 353 353 354 353 353 353 351 352 351 352 352 351 351 350 349 349 349 350 351 351 351 352 352 353 354 353 353 354 354 354 354 355 356 356 359 358 358 361 362 361 360
355 357 357 357 356 355 356 357 356 356 356 356 354 355 354 352 352 353 352 350 352 354 354 352 352 353 354 353 353 352 351 352 351 351 350 348 347 348 348 348 350 350 351 351 351 352 353 353 353 353 354 354 355 356 356 358 361 359 358 359 361 361 359
355 356 356 356 356 356 358 358 357 356 356 355 353 353 353 353 352 352 352 352 352 355 354 352 352 353 354 355 354 352 352 351 350 351 351 347 345 346 346 346 349 350 350 350 350 351 351 351 352 353 355 356 356 358 359 360 362 360 359 361 362 361 358
354 355 355 355 355 357 358 358 357 356 356 356 355 354 354 353 353 353 354 354 354 355 356 354 353 354 355 356 355 354 352 352 351 350 350 348 345 344 344 344 345 347 350 349 348 348 349 351 351 353 355 357 357 358 360 361 361 360 360 361 361 359 357
354 354 353 355 356 356 356 356 355 355 356 356 356 355 355 354 354 354 354 355 356 355 356 355 354 354 356 357 356 354 352 352 352 351 350 350 347 345 344 343 343 344 347 347 347 346 347 351 352 353 356 358 358 358 359 360 360 360 360 360 359 356 355
352 354 354 355 355 354 354 353 354 355 355 355 356 356 356 356 355 355 355 355 355 355 355 355 355 354 356 357 357 356 353 351 352 351 350 351 349 347 345 344 343 343 343 346 346 345 345 348 352 355 357 358 357 356 358 359 358 360 361 358 354 353 354
352 354 354 354 353 352 351 351 352 354 354 354 355 355 356 357 355 355 356 356 355 355 355 356 355 355 356 356 356 356 354 353 351 351 351 350 351 351 349 345 344 344 343 344 345 344 344 345 349 355 358 359 358 355 357 358 358 361 360 355 353 354 356
353 353 353 353 352 350 351 350 351 353 353 353 353 354 355 355 354 355 355 355 355 354 354 354 355 356 357 356 356 356 356 355 353 353 352 352 353 354 354 350 346 345 345 344 344 344 345 344 345 351 355 356 356 356 357 357 358 362 360 354 353 357 356
354 353 352 352 351 350 349 349 351 352 351 352 352 352 354 354 354 354 354 354 354 354 354 353 354 355 356 356 356 356 357 356 356 356 355 355 356 357 358 356 351 348 347 347 346 345 345 344 344 346 349 352 355 358 358 355 356 361 360 354 354 356 356
355 354 353 352 351 349 348 347 349 351 350 350 350 350 352 352 353 353 354 354 354 353 353 353 353 354 355 356 356 357 357 358 358 358 357 358 359 360 361 359 357 353 352 351 350 348 347 348 346 346 346 348 352 357 357 353 354 359 358 353 353 355 357
355 355 354 352 349 348 347 346 348 349 348 348 348 349 350 350 351 351 352 353 353 353 353 352 352 353 354 355 356 357 358 358 359 359 359 359 361 361 362 361 359 357 356 355 354 353 353 351 350 348 346 345 348 353 354 352 354 359 357 352 352 354 356
354 355 353 351 349 347 346 346 346 347 347 347 347 348 348 348 349 349 351 352 353 353 353 353 353 353 353 355 355 356 358 358 359 360 360 360 360 361 361 361 361 360 359 358 357 357 356 355 352 352 350 347 347 349 352 353 356 358 355 353 352 351 353
352 353 352 350 347 345 345 345 345 346 346 346 346 346 346 346 347 347 349 349 350 351 352 353 353 353 354 354 354 355 356 357 358 359 359 361 361 361 361 361 362 362 361 360 358 358 358 357 356 355 353 351 351 352 352 354 357 357 354 351 351 351 352
351 351 350 348 345 345 345 346 345 345 345 345 345 345 344 344 344 345 345 345 347 349 350 351 352 353 354 354 354 355 355 356 358 358 359 360 361 361 361 361 362 362 360 360 359 359 359 358 357 356 355 355 354 355 354 354 356 356 353 351 351 351 351
349 349 348 345 344 343 345 345 344 344 344 343 342 342 342 342 342 342 342 342 344 345 347 349 351 352 352 353 354 354 355 355 356 357 358 360 361 362 362 361 361 362 361 361 360 361 360 360 359 357 357 357 357 358 356 353 353 354 352 351 352 351 350
348 347 345 344 344 344 345 344 342 342 342 341 340 340 340 340 340 340 340 341 342 343 345 347 349 351 352 352 353 354 354 355 355 356 357 358 361 362 362 361 361 361 361 361 362 362 362 362 360 358 358 358 358 358 354 350 351 353 352 351 351 350 350
346 344 344 344 344 344 343 342 341 340 340 339 339 339 339 339 339 339 340 340 340 342 343 345 346 348 350 351 352 353 353 354 355 355 357 357 359 361 361 361 360 359 360 362 362 363 363 363 361 360 359 358 358 357 352 349 351 351 350 350 348 348 351
344 343 344 343 343 343 342 341 340 339 338 339 339 338 339 339 338 339 339 340 340 341 342 343 344 346 348 350 351 352 353 353 355 355 356 357 357 358 359 360 360 360 361 362 362 363 363 362 360 359 358 358 357 355 351 349 350 350 348 348 346 347 351
344 343 342 341 341 341 340 340 338 338 338 339 338 338 338 338 338 339 339 340 340 341 342 342 343 344 346 348 349 350 351 352 353 354 355 355 356 357 359 359 360 360 360 361 361 361 361 359 358 356 356 355 353 351 348 348 348 347 347 345 345 348 351
343 342 342 340 340 339 338 338 338 338 338 338 338 338 337 337 338 338 339 340 341 342 342 343 343 344 344 345 347 348 350 351 352 354 354 355 356 357 357 358 358 359 360 361 361 359 358 357 355 353 351 349 348 347 346 345 344 343 344 344 345 349 349
341 341 340 339 339 338 336 337 337 337 336 336 337 337 337 337 338 338 339 340 340 342 343 343 344 345 345 345 346 346 348 350 351 352 353 354 356 355 355 356 357 358 360 360 358 356 354 352 352 351 348 345 345 345 344 343 341 340 341 342 344 346 346
340 340 339 338 338 336 336 336 336 336 336 336 336 336 336 337 337 338 339 340 340 342 342 342 343 344 345 346 346 346 346 348 350 351 352 353 354 355 355 357 358 358 358 357 355 352 351 350 349 347 345 344 343 342 341 340 339 338 339 341 343 343 344
341 340 338 337 336 336 335 336 336 335 336 336 336 336 336 335 336 337 338 339 340 339 340 340 341 343 345 347 346 346 346 347 348 350 351 351 353 355 357 358 357 355 354 353 351 349 348 346 344 342 341 341 340 339 337 336 335 336 338 340 341 342 342
341 339 338 336 335 335 335 335 335 335 336 336 335 335 335 335 335 336 337 338 338 337 338 340 340 342 344 346 347 346 345 346 347 348 350 351 352 354 356 355 354 352 350 350 348 346 344 342 340 338 338 337 337 336 335 333 332 333 336 337 338 339 338
339 338 336 335 334 335 334 334 334 335 336 336 335 334 334 334 334 335 336 336 336 336 337 338 339 341 343 345 347 346 346 346 347 348 350 350 351 352 354 353 351 349 346 346 345 342 341 339 336 335 334 334 334 333 332 330 329 330 332 333 334 335 334
338 336 335 334 335 334 333 334 335 336 336 335 334 334 334 334 334 335 335 334 334 335 336 336 337 339 340 342 343 345 346 347 347 347 348 348 349 351 350 348 348 345 344 344 343 340 339 337 334 333 331 330 331 330 328 327 327 327 328 330 331 332 333
338 335 335 335 334 333 333 335 335 335 335 334 334 334 334 334 334 334 334 334 334 334 334 334 335 335 335 336 337 339 341 342 342 342 342 341 343 344 343 342 342 341 339 339 338 337 336 334 332 331 328 326 327 327 326 325 325 325 326 328 329 330 331
337 335 334 334 333 333 334 335 334 334 334 334 333 334 334 335 334 333 333 333 333 333 332 332 332 331 331 330 330 331 332 331 332 332 331 331 331 331 331 332 333 332 331 331 332 333 332 332 331 329 326 324 324 323 323 323 323 324 325 326 327 328 329
336 334 334 333 333 333 334 334 333 333 333 333 333 334 334 334 333 332 332 332 331 331 330 329 329 329 327 326 326 325 324 324 323 323 322 322 323 322 321 323 324 324 324 324 326 328 328 327 326 324 323 322 322 322 321 321 321 322 324 326 327 329 330
334 333 333 333 333 333 333 333 333 332 332 332 333 334 334 333 333 332 332 331 331 330 330 329 329 328 326 325 324 322 321 320 320 319 319 319 319 318 318 318 320 321 322 321 321 322 322 322 321 320 320 320 322 323 323 321 321 322 324 326 328 329 331
333 333 333 332 333 333 333 332 331 331 332 332 333 334 334 333 332 332 331 331 330 330 329 329 328 327 325 324 323 321 320 319 318 318 317 316 316 316 315 315 315 317 319 319 319 319 318 319 319 319 319 318 319 321 322 321 321 321 323 326 327 328 330
333 332 332 332 332 332 332 331 330 330 330 332 333 334 334 333 332 332 331 331 330 330 329 328 327 325 324 323 322 321 321 320 319 319 318 317 317 317 316 315 315 314 315 316 317 317 317 317 316 316 316 316 315 316 316 317 318 319 322 325 325 324 327
Wind_Speed
4 7 9 10 10 12 13 15 16 17 18 19 20 21 20 18 18 17 17 18 19 19 20 20 19 19 20 20 19 18 18 16 15 14 14 13 11 10 9 10 10 10 10 10 9 9 9 9 9 9 9 10 10 10 9 8 8 7 7 6 7 7 7
2 3 6 8 9 11 13 16 17 16 16 16 18 19 19 18 18 18 18 19 20 20 20 20 20 19 20 19 19 18 18 17 16 15 15 14 12 11 11 10 10 10 10 10 8 8 8 9 9 10 10 10 10 9 9 8 7 7 7 6 7 7 7
0 1 2 5 7 9 11 14 16 16 16 16 15 16 17 18 18 19 19 19 20 21 20 20 20 20 20 19 19 19 19 18 17 17 16 15 14 13 12 11 11 11 10 10 9 9 9 9 10 10 10 10 9 8 8 8 8 7 7 7 7 7 7
2 1 0 3 5 7 9 11 14 16 16 15 15 16 17 17 17 18 18 18 19 20 21 21 20 21 20 20 19 19 19 19 18 18 17 16 15 14 13 13 12 12 11 11 10 10 9 9 9 10 9 9 8 8 8 8 8 7 7 7 8 8 8
4 3 2 0 2 4 6 9 12 14 15 15 16 17 18 17 17 17 17 18 19 19 21 21 20 20 20 20 20 19 19 19 19 18 17 16 15 15 14 14 13 13 12 11 11 11 10 10 9 9 9 9 9 9 9 9 9 8 8 8 8 8 8
4 4 3 2 1 2 4 7 10 12 14 15 16 17 17 16 16 17 16 17 18 19 19 19 19 19 20 20 20 19 18 19 19 18 17 17 16 16 15 15 14 13 13 12 12 12 11 11 10 9 9 9 9 9 9 9 9 9 8 8 8 8 8
4 5 4 3 2 1 1 4 7 10 12 13 15 16 15 15 16 16 15 16 19 20 19 19 19 18 18 19 19 19 19 19 19 19 18 18 17 17 16 15 15 14 13 13 12 12 11 11 10 10 10 9 9 9 9 8 8 7 7 8 8 8 9
5 5 4 4 3 2 1 2 4 7 10 12 14 15 15 16 16 15 16 19 19 19 19 19 19 19 19 18 18 19 20 19 19 18 18 18 18 18 17 16 16 15 14 14 13 12 12 11 11 10 10 10 9 9 8 7 7 7 7 7 8 9 10
5 4 4 4 3 2 1 1 3 5 8 10 12 13 14 15 15 15 16 18 17 17 18 18 18 18 19 19 18 19 19 19 19 18 19 19 19 19 19 17 16 16 16 15 14 13 13 12 12 11 10 10 9 8 8 7 7 7 7 7 7 8 9
4 4 4 3 3 3 2 1 2 4 6 8 10 11 13 14 14 14 15 15 15 16 17 16 16 17 18 19 19 19 19 19 19 19 19 19 19 20 19 18 17 16 16 16 15 14 13 13 12 11 11 10 9 9 8 8 8 8 8 7 7 8 9
2 3 3 3 4 4 3 3 2 3 4 6 8 9 10 12 13 14 14 14 15 15 15 15 16 16 17 17 18 18 19 19 19 20 20 20 20 20 20 19 18 17 17 16 16 15 14 13 12 12 12 12 11 10 10 9 9 9 9 8 8 9 10
1 2 3 4 4 4 4 4 4 4 4 5 6 7 8 9 11 13 13 14 14 14 14 14 15 16 16 16 16 17 18 19 19 20 20 20 20 20 19 19 19 18 18 17 16 16 15 14 13 13 13 13 12 11 10 10 10 10 10 10 10 10 10
1 2 3 3 3 4 4 3 4 4 4 4 5 6 7 8 10 11 12 13 13 14 14 14 15 17 18 17 17 17 18 19 19 19 19 20 20 19 19 19 18 18 18 17 17 16 16 16 15 14 14 14 13 12 11 12 11 10 10 10 10 8 8
1 1 2 2 3 3 4 4 4 4 4 5 5 5 5 7 9 10 11 12 11 12 13 13 14 17 18 19 18 18 18 18 18 18 18 18 18 18 18 18 18 18 17 17 17 17 17 17 16 16 15 14 13 12 12 12 11 10 10 10 8 7 8
2 1 1 1 2 3 3 3 4 4 5 5 6 6 6 6 7 9 11 12 11 11 12 12 14 15 17 18 18 18 18 18 18 17 17 17 18 18 18 18 18 18 18 17 17 17 17 17 16 16 15 14 13 13 13 13 12 12 11 9 7 8 8
2 1 1 1 1 1 2 3 3 4 5 5 5 6 6 6 5 6 8 10 11 12 13 13 14 16 17 17 18 18 18 18 17 17 18 18 18 18 18 18 18 18 18 18 18 18 17 16 16 16 16 15 14 14 14 13 12 14 13 10 8 8 8
2 2 2 1 0 1 2 3 4 4 5 5 6 6 6 5 5 6 7 7 9 11 13 14 15 17 18 18 18 18 18 17 17 18 18 18 19 19 18 18 18 17 18 18 18 18 17 17 17 17 17 16 16 15 15 13 13 16 15 12 10 9 9
1 1 1 0 1 2 3 3 4 5 6 6 6 6 6 6 6 6 6 6 7 9 11 13 15 16 18 19 19 19 18 18 17 18 19 19 20 20 19 18 18 18 18 18 17 17 17 18 18 17 17 16 16 16 14 13 15 18 17 14 12 10 9
2 1 0 0 1 2 3 4 5 6 7 7 7 6 6 6 7 7 7 7 8 8 9 11 13 15 17 18 20 20 20 19 18 19 20 20 20 20 19 19 18 18 18 18 18 17 17 17 17 17 17 16 15 16 14 14 17 19 17 15 13 10 9
2 1 1 1 2 2 3 5 6 7 7 7 7 7 7 7 7 8 8 8 8 8 9 10 11 14 16 18 19 20 21 21 20 20 21 20 20 19 19 19 19 19 18 18 18 17 17 17 17 17 17 16 15 16 14 14 18 19 16 14 12 11 9
2 1 2 2 3 3 4 6 7 8 7 7 8 9 9 8 8 9 9 9 9 9 9 10 11 12 14 17 18 19 20 21 22 22 21 21 20 19 19 19 19 18 18 17 17 17 17 17 16 16 16 15 15 15 13 14 18 17 15 14 12 10 9
0 1 2 3 4 4 5 6 7 7 7 8 9 9 9 9 9 9 9 10 10 10 10 10 11 13 14 15 17 18 20 21 22 23 22 21 20 19 19 20 19 18 17 16 15 15 15 15 15 15 15 15 15 15 13 14 17 16 14 13 11 9 8
0 2 3 4 4 5 6 6 7 8 8 9 9 9 9 9 9 10 10 10 10 10 11 11 12 14 15 16 16 18 19 20 21 23 23 22 22 21 21 20 20 19 17 16 15 14 14 14 14 14 14 15 15 14 13 15 17 15 14 12 11 9 8
1 1 3 4 5 6 7 7 7 8 9 9 9 9 9 10 10 10 10 10 10 11 11 12 13 14 15 16 17 18 19 19 20 22 23 23 24 24 22 21 20 19 18 16 15 14 14 13 13 13 14 15 15 14 14 16 17 15 13 12 11 11 10
1 1 2 3 5 6 7 8 8 8 8 8 9 9 9 10 10 9 10 10 10 11 12 13 14 14 14 15 16 18 19 19 21 21 23 24 24 24 24 22 21 19 17 16 16 14 14 14 14 14 14 12 13 15 15 15 15 14 12 11 11 12 11
1 1 2 4 5 7 8 8 8 8 8 8 9 9 10 10 9 9 10 10 10 11 12 13 13 14 15 15 15 17 18 20 21 21 23 23 22 23 24 23 21 19 17 16 16 14 15 15 15 15 14 11 11 12 11 11 12 13 11 11 14 15 12
1 1 2 4 6 7 8 8 8 8 9 9 10 10 10 10 10 10 10 10 10 11 11 12 13 13 14 15 16 16 17 19 21 22 23 22 21 23 25 23 20 19 17 17 16 16 17 17 15 14 13 11 10 9 8 8 11 13 13 14 17 16 13
1 1 3 4 6 7 8 8 8 9 9 9 10 10 10 10 11 11 10 10 11 11 12 13 13 13 14 15 16 17 17 18 20 22 23 22 21 21 21 19 17 17 18 19 19 19 18 16 15 14 13 13 12 11 9 8 9 14 16 16 18 17 15
1 2 3 5 6 6 7 8 8 9 9 9 10 10 10 10 11 11 11 11 12 12 13 13 13 13 14 14 14 16 17 17 18 20 22 22 20 18 16 16 17 18 20 20 20 20 19 18 16 15 15 15 14 12 10 9 10 14 17 17 18 19 17
1 2 4 5 6 6 7 8 8 9 9 9 10 10 10 10 11 11 12 12 12 13 13 13 13 13 13 13 13 13 14 16 17 19 21 21 20 16 15 17 19 20 20 20 20 21 20 19 18 17 17 16 16 14 12 10 10 11 14 16 17 18 18
0 2 4 4 5 6 6 7 8 9 9 9 10 10 9 9 11 12 13 13 13 13 13 13 12 12 11 12 11 10 11 13 14 16 17 18 18 15 15 17 18 18 19 21 21 20 18 18 18 18 17 18 19 18 15 15 15 15 16 18 20 22 24
1 2 4 4 4 5 6 6 7 8 9 9 9 9 9 9 10 11 13 14 14 13 12 11 10 9 8 8 7 7 7 8 8 8 8 9 11 12 14 16 17 18 19 21 21 19 18 18 20 20 20 20 21 20 19 21 23 22 20 20 23 26 28
1 2 3 3 3 4 5 5 6 8 8 9 8 9 9 10 10 11 12 13 13 12 9 8 7 7 6 6 5 4 3 2 4 5 5 6 8 9 9 10 13 14 15 16 18 18 17 18 20 22 22 21 21 22 23 24 25 24 23 22 25 27 26
1 1 1 1 2 3 4 5 6 7 8 8 8 9 10 10 10 10 11 11 10 9 8 8 8 9 9 10 10 10 11 11 13 15 17 17 16 16 14 13 13 13 10 7 10 16 18 19 20 22 24 25 26 27 26 24 24 25 25 25 27 28 27
1 1 1 0 1 2 3 4 6 6 7 7 8 9 9 9 10 10 9 9 8 8 9 11 12 13 14 14 15 16 17 17 18 22 27 29 28 27 24 20 18 19 17 13 8 11 17 21 21 22 26 31 33 31 30 27 26 26 27 27 28 29 29
2 2 2 1 1 2 3 4 5 5 6 7 7 8 8 9 9 9 9 8 9 10 12 13 14 15 16 17 18 19 21 22 21 23 29 34 36 36 34 29 25 23 24 22 18 15 18 22 23 21 22 27 31 31 31 30 29 27 28 29 28 27 28
4 3 3 2 1 2 3 4 4 4 5 6 6 6 7 8 9 9 9 9 10 12 14 15 15 15 16 17 17 18 20 22 21 21 26 32 36 38 40 39 35 31 30 31 30 28 26 27 28 25 21 22 27 30 29 29 28 27 28 29 28 26 25
5 4 3 3 3 2 3 3 4 5 5 5 5 6 8 9 10 9 10 11 12 13 15 16 16 17 17 17 18 19 20 21 21 21 22 25 28 31 33 34 35 33 32 33 35 33 29 26 26 26 24 24 27 30 30 28 27 27 28 29 27 25 24
Wind_Direction
222 212 214 216 213 212 209 207 208 203 196 189 185 193 200 198 194 194 192 192 194 195 195 199 202 203 203 203 203 204 206 208 209 211 213 216 221 223 223 224 224 224 225 221 215 214 215 216 219 221 219 220 224 227 228 232 236 240 241 239 244 250 253
222 216 210 216 216 216 212 208 208 206 202 199 193 192 195 194 194 195 194 192 194 196 197 199 202 205 207 206 205 205 207 211 211 211 211 212 216 220 223 227 225 224 228 230 224 217 216 217 218 222 224 225 227 227 229 233 235 239 241 237 240 245 248
71 222 205 218 219 218 215 210 207 205 205 205 200 195 195 194 194 195 195 193 193 195 197 199 200 204 208 208 208 208 210 213 214 212 212 212 212 216 220 224 227 227 227 229 228 224 220 219 219 222 225 229 231 228 230 233 232 235 238 236 239 241 241
52 42 172 222 223 223 220 211 207 206 205 203 202 199 194 192 193 195 196 197 197 197 198 200 200 202 205 208 211 212 213 215 216 215 216 215 214 215 218 220 223 226 227 226 225 225 225 225 223 222 224 230 234 232 232 234 234 234 234 233 237 240 242
55 36 45 241 223 224 223 215 209 206 203 200 198 195 189 188 194 199 201 202 204 204 204 204 203 202 203 206 210 213 214 215 216 218 219 219 219 218 218 219 221 223 225 225 223 223 226 230 230 225 221 224 228 231 231 232 233 235 233 234 240 244 248
48 36 30 16 337 230 225 220 214 206 200 194 189 191 191 193 201 204 205 209 208 206 207 210 210 206 205 207 209 212 214 215 215 217 220 221 221 220 220 220 222 224 224 223 224 223 223 227 232 230 225 225 229 231 231 231 234 236 234 237 244 251 260
36 40 33 23 13 330 249 226 215 203 199 195 194 201 206 209 212 207 206 214 213 205 205 211 212 211 210 211 211 212 213 215 215 216 219 221 221 221 221 221 223 225 225 224 225 225 225 225 226 228 228 230 234 235 235 233 236 243 245 245 249 255 263
33 34 30 27 18 0 330 241 219 205 207 210 210 213 213 213 215 210 208 216 215 207 207 212 212 211 211 213 214 215 215 215 216 217 220 222 222 221 222 221 222 223 224 225 225 224 226 225 223 224 227 231 235 239 241 238 238 247 253 254 257 262 267
36 30 28 27 20 17 9 259 230 215 218 220 220 220 219 217 217 215 214 217 216 210 209 211 211 210 209 210 213 217 218 218 217 218 220 222 223 223 222 221 221 221 223 226 225 223 224 224 224 223 223 227 234 238 241 241 241 246 253 259 264 270 279
31 22 23 25 28 25 16 329 250 239 230 226 227 227 226 224 223 221 219 218 217 214 211 209 212 212 210 209 212 216 220 222 221 220 221 222 224 224 224 223 222 222 223 226 226 225 223 222 223 223 221 225 231 236 238 239 240 244 250 254 254 258 264
34 19 16 19 29 25 14 5 317 279 255 239 238 237 233 230 226 223 220 216 216 218 217 215 216 216 214 213 216 219 221 223 224 224 222 222 224 225 224 225 225 224 225 227 228 228 225 221 221 220 220 222 228 231 233 235 239 243 245 247 252 259 263
40 24 24 25 27 24 19 8 347 329 299 267 253 249 247 240 231 226 222 218 217 221 224 222 222 222 219 218 223 228 227 224 225 226 225 223 225 226 226 226 227 227 227 227 228 229 228 224 220 218 219 221 224 228 229 232 237 237 235 249 263 266 263
59 40 35 34 29 26 26 12 355 348 327 303 281 262 254 247 240 233 227 222 221 223 225 224 223 223 220 219 224 230 232 229 227 226 227 226 225 226 227 227 228 229 229 228 228 229 228 225 221 218 221 223 224 227 227 229 232 226 230 255 270 258 248
123 92 59 50 46 34 24 12 9 0 348 342 328 302 274 255 245 238 234 231 227 226 227 226 225 223 222 223 226 228 230 232 232 230 229 228 226 226 227 228 229 230 231 231 230 230 229 228 223 220 224 228 228 227 225 227 227 217 227 258 265 241 236
157 132 112 73 61 46 20 6 8 4 359 357 348 336 318 287 262 247 242 239 236 232 228 227 229 229 229 230 230 228 227 229 231 231 230 228 225 224 225 227 229 230 231 231 232 232 231 231 228 226 227 227 227 225 225 229 227 215 222 246 246 230 234
167 166 168 131 70 29 2 345 344 346 351 352 344 337 331 319 301 275 258 249 244 240 234 230 231 234 235 234 232 230 227 227 228 228 228 226 224 223 223 226 230 231 231 230 230 231 230 230 230 230 229 228 227 226 228 232 228 220 228 242 241 230 232
184 186 184 146 60 325 310 307 314 320 327 334 334 331 327 322 314 298 281 266 255 248 242 237 233 233 234 235 235 233 230 228 228 227 226 225 225 225 225 227 229 230 230 229 228 228 226 226 227 228 230 231 229 229 232 233 224 222 233 248 254 246 237
216 209 204 138 1 322 312 308 310 311 314 319 321 319 321 321 313 305 300 294 281 266 252 242 237 237 235 234 235 235 232 229 227 228 229 226 226 228 228 229 228 228 227 227 227 225 224 224 223 224 227 231 232 231 233 230 222 225 237 249 259 258 242
251 256 232 306 329 314 309 308 309 313 313 315 316 316 323 325 314 311 317 317 310 299 277 252 242 241 239 237 236 235 234 232 229 229 230 228 227 228 229 229 228 226 226 226 227 225 225 225 222 220 221 224 227 228 228 225 223 228 239 248 257 259 243
258 289 301 302 314 323 321 316 314 317 317 318 321 320 318 314 302 299 302 301 298 297 291 279 262 249 243 240 239 237 237 235 233 232 231 229 228 227 227 227 227 227 228 228 226 223 222 224 224 221 220 218 220 222 222 222 223 228 239 246 252 256 240
252 318 321 317 329 340 338 327 319 319 322 323 322 316 310 306 300 295 292 288 286 279 277 284 281 265 252 244 241 239 238 236 235 234 232 229 226 224 224 226 226 227 227 227 226 221 218 220 221 221 219 217 218 219 215 217 224 232 240 243 246 245 230
199 332 327 332 335 334 334 331 325 324 324 320 314 308 306 306 303 297 289 284 283 276 268 269 269 265 259 251 245 242 239 237 236 234 232 229 225 222 222 222 224 225 225 225 225 220 214 213 216 220 220 218 218 213 208 220 233 236 236 237 237 231 215
26 316 324 335 334 325 324 330 329 322 317 313 308 306 305 303 299 293 288 284 279 274 269 263 257 255 255 253 251 246 242 240 239 236 234 230 227 225 222 222 223 223 221 220 218 215 212 210 209 211 210 209 207 200 203 225 235 232 229 225 215 201 192
229 307 331 337 335 331 330 334 331 319 315 313 309 309 308 304 299 292 287 284 278 272 267 262 258 256 254 253 252 250 247 245 242 240 237 234 231 228 225 223 221 219 216 215 212 211 211 206 199 195 196 200 199 192 200 222 229 224 219 211 195 183 179
177 323 333 332 340 342 335 332 325 317 317 316 313 318 317 308 303 295 288 285 279 272 265 261 261 260 258 257 255 253 251 248 245 243 240 237 235 231 227 224 221 217 213 211 210 209 205 200 195 190 189 193 196 194 200 214 217 213 209 201 182 167 167
104 329 323 329 342 343 330 323 322 320 321 321 320 324 322 314 308 299 293 290 283 274 269 268 269 266 263 260 258 256 253 249 247 245 242 240 237 234 231 226 221 216 210 207 208 201 193 193 193 182 172 171 183 190 191 194 196 196 193 182 166 158 164
122 309 333 337 339 337 326 322 325 323 323 325 325 325 323 318 311 303 298 295 287 283 284 285 284 278 269 260 255 255 254 251 247 245 243 241 239 237 235 229 223 217 208 200 193 186 184 188 184 170 160 159 168 172 164 166 176 172 164 164 167 167 172
125 341 348 339 331 331 327 323 325 324 324 328 327 327 326 320 312 308 305 300 296 298 300 298 292 286 277 266 256 250 251 252 250 246 243 241 239 237 234 227 220 214 204 193 187 183 182 177 168 161 157 154 154 153 147 143 151 155 155 163 171 171 169
34 337 331 324 322 330 329 323 325 326 326 329 331 329 328 322 317 315 312 307 307 307 306 303 299 292 281 273 266 254 248 248 249 246 242 239 236 233 226 215 210 208 202 192 183 177 171 162 155 153 152 148 145 143 138 131 139 154 159 164 169 170 166
23 317 316 318 323 331 329 324 327 328 327 331 335 333 331 327 322 320 317 317 316 314 310 309 309 303 289 280 276 265 251 245 246 245 241 237 234 230 221 212 206 202 195 183 172 166 162 157 153 150 149 148 144 139 132 122 126 147 157 159 161 160 149
312 309 311 317 328 332 330 326 325 326 330 335 337 334 333 329 324 321 323 325 324 321 319 317 316 313 301 290 286 279 261 249 245 243 239 236 234 227 213 203 195 187 180 174 168 163 158 155 154 152 151 147 143 137 132 127 128 136 144 144 141 136 130
245 305 308 318 336 333 325 321 322 326 334 338 340 340 338 334 330 329 330 332 332 330 326 325 326 325 315 305 304 298 280 257 240 233 231 228 221 210 201 197 190 181 175 173 172 167 160 157 156 154 148 143 140 137 134 133 133 133 132 130 129 129 128
201 316 315 334 346 328 321 328 332 335 339 341 344 345 342 341 342 340 339 340 340 339 339 344 352 358 1 8 18 26 43 101 143 147 130 126 141 151 157 166 171 168 167 169 169 164 158 156 157 154 148 142 138 135 132 132 134 134 129 124 125 126 127
187 272 296 348 345 328 331 339 337 338 343 347 345 343 344 350 353 352 353 355 355 1 13 26 34 41 45 48 57 68 76 84 96 102 100 98 100 100 100 108 121 121 112 127 158 159 157 157 158 156 151 144 138 134 131 130 134 136 133 129 128 128 126
185 210 207 14 5 356 355 349 343 345 351 350 345 345 351 359 3 6 11 15 21 34 45 53 57 60 62 65 70 75 77 81 86 91 93 92 89 86 84 89 102 106 99 94 113 143 149 148 146 145 146 143 139 137 134 133 136 138 137 134 132 130 127
183 180 169 129 44 26 15 3 353 355 359 353 350 357 5 8 14 22 29 35 42 51 60 67 70 69 70 72 74 76 80 83 85 89 93 95 94 92 88 87 91 99 101 99 98 107 120 123 123 127 134 136 136 136 135 133 135 138 139 136 132 130 129
177 163 153 144 121 56 33 20 11 18 19 4 360 13 20 22 29 39 46 54 60 64 68 71 73 74 75 75 75 77 82 85 87 89 92 94 96 97 95 93 91 93 98 102 101 99 102 109 113 115 118 122 127 129 129 129 132 137 138 135 131 129 130
159 156 159 151 138 100 64 50 36 37 37 24 23 36 39 37 40 48 59 68 72 75 75 76 79 79 78 77 79 80 84 88 90 90 92 93 94 95 96 96 94 92 94 99 101 99 99 102 107 112 116 120 122 123 125 128 132 134 136 136 133 130 130